STARLINK-36792, 67804

Orbit data source: Space-Track

STARLINK-36792, 67804 is a payload satellite owned by SpaceX/Seattle (US) in SSO that was launched on Sun, 15 Feb 2026 UTC via an FALCON 9 launch vehicle from the Air Force Western Test Range (AFWTR). Payload-class satellites include a variety of spacecraft equipped with specific instruments for various scientific and technological missions. These include communications satellites like Starlink; space stations such as the ISS; scientific satellites like the Hubble; Earth observation satellites from companies like Planet Labs, Umbra, and HawkEye 360; GPS; miniature CubeSats for education and research; and military/defense satellites.

Loading next visibility...
Identifier
67804, 2026-032H
Orbit
SSO
Country
Flag of USUS
Related business
Manufacturer
SpaceX/Seattle
Mission
Operational Commercial Communications
Bus & Motor
STARLINK V2MO, Unknown motor
Mass
575 kg wet, ~530 kg dry
Launch date (UTC)
2026-02-15 (4 months ago)
Launch vehicle
FALCON 9
Launch site
Air Force Western Test Range (AFWTR)
Object type
Payload
Rocket body
Debris
Shape & HBR
Box + 2 Pan, 17.7 m
Radar Cross Section
36.964 m², Large (>1 m²)

Expand to show TLE details & history
Last TLE update: 10 hours ago

TLE from 10 hours ago
0 STARLINK-36792
1 67804U 26032H   26171.44087286  .00010488  00000-0  32672-3 0  9998
2 67804  97.2867 359.0974 0001566  62.2697 297.8704 15.33447228 20708
Epoch: 2026-06-20T10:34Z
TLE epoch observation values (Epoch: 2026-06-20T10:34:51.415Z)
Latitude
-0.00004°
Longitude
-68.27228°
Altitude
468.148 km
Speed
7.632 km/s
True Right ascension
23h 56m 23s
True Declination
0° 00' 00"
Sunlit
Object was in daylight at epoch
Visualization orbit readout
Latitude
Unknown
Longitude
Unknown
Altitude
Unknown
Speed
Unknown
Apparent Right ascension
Unknown
Apparent Declination
Unknown
Sunlit
N/A
Visualization observer readout
Local Sidereal Time
07:12:22
Azimuth
Unknown
Elevation
Unknown
Doppler factor
Unknown
Orbital elements
Apogee altitude
463.551 km
Perigee altitude
461.408 km
Semi-major axis
6,840.616 km
Eccentricity
0.00016
Inclination
97.2867°
RAAN
359.0974°
Arg. of periapsis
62.2697°
True anomaly
297.85454°
Mean anomaly
297.8704°
Eccentric anomaly
297.86247°
Mean motion
3.83619 °/min
Orbital period
93.84 mins
BSTAR
0.00032672
Loading maneuver chart data...
Computing Atmospheric mass density...
Loading historical data...
Loading historical data...
Loading historical data...
Loading historical data...
Loading historical data...
Loading historical data...
Loading historical data...

Documentation

Showing up to 5 results
|